Location: Clauen
(52.2495°N, 10.0269°E)
Time: 04:31:38
(UTC+00:00)

Daily predictions for brighter satellites

Satellite Brightness Start Highest point End
(mag) Time Altitude Azimuth Time Altitude Azimuth Time Altitude Azimuth
ATLAS 3B R/B 4.3 02:27:10 31° NNE 02:27:10 31° NNE 02:32:05 10° ENE
ACS3 Solar Sail 4.3 02:28:16 10° NNE 02:28:39 12° NNE 02:28:39 12° NNE
Cosmos 2322 Rocket 4.3 02:50:36 22° NE 02:50:36 22° NE 02:54:20 10° E
NOSS 3-1 (A) 4.4 03:09:52 51° NNE 03:09:52 51° NNE 03:17:43 10° ESE
SL-16 R/B 3.4 03:19:10 39° ENE 03:19:10 39° ENE 03:23:55 10° ESE
Cosmos 2082 Rocket 3.2 03:23:08 42° E 03:23:08 42° E 03:27:57 10° NE
USA 234 3.5 03:22:53 10° ENE 03:28:36 62° NNE 03:28:36 62° NNE
SeaSat 1 4.4 03:26:06 10° NNE 03:27:52 23° NNE 03:27:52 23° NNE
CZ-2C R/B 4.5 03:32:28 10° NNE 03:34:03 20° NNE 03:34:03 20° NNE
Cosmos 2278 4.4 03:42:22 48° NE 03:42:46 49° NE 03:48:14 10° SE
NOSS 3-1 (C) 3.7 03:52:29 74° W 03:53:04 78° SW 04:01:42 10° SE
Timation 1 Rocket 4.3 03:56:01 73° NNE 03:56:01 73° NNE 04:01:25 10° NNE
Cosmos 841 Rocket 4.1 04:00:24 35° SSE 04:02:20 56° ESE 04:07:30 10° NNE
COSMOS 2455 3.6 04:07:00 38° SSW 04:07:00 38° SSW 04:10:55 10° SSE
Cosmos 2360 Rocket 2.9 04:09:26 33° N 04:11:31 49° NE 04:16:56 10° SE
Cosmos 2333 Rocket 2.5 04:11:00 47° N 04:12:35 67° NE 04:18:18 10° SE
ACS3 Solar Sail 3.8 04:11:52 10° N 04:12:40 13° N 04:12:40 13° N
ATLAS 3B R/B 3.8 04:14:24 29° NNW 04:17:35 41° NNE 04:24:49 10° E
Nadezhda 4 Rocket 3.9 04:13:04 10° S 04:19:22 88° E 04:25:41 10° N
Cosmos 2237 Rocket 4.4 04:18:19 12° N 04:20:42 15° NNE 04:23:51 10° NE
NOSS 3-4 (A) 4.0 04:23:03 38° NNW 04:23:03 38° NNW 04:28:50 10° NE
NOSS 3-4 (C) 4.0 04:23:12 38° NNW 04:23:12 38° NNW 04:29:01 10° NE
Cosmos 1892 Rocket 4.2 04:19:54 10° S 04:24:10 55° E 04:28:29 10° NNE
Cosmos-2242 3.8 04:24:05 30° NNE 04:25:49 49° ENE 04:29:54 10° SSE
ADEOS Rocket 4.4 04:22:10 10° N 04:27:21 30° NW 04:27:21 30° NW
Cosmos 2219 Rocket 3.2 04:25:49 23° N 04:28:58 43° NE 04:34:19 10° ESE
Cosmos 220 Rocket 4.1 04:29:35 65° NE 04:29:35 65° NE 04:33:12 10° NNE
COSMO-SKYMED 1 2.5 04:28:07 10° SSE 04:32:13 76° ENE 04:32:40 66° NNE
IRS-1D 3.6 04:27:40 10° NNE 04:32:41 73° ESE 04:37:45 10° S
Cosmos 468 Rocket 4.4 04:33:47 44° NNW 04:33:47 44° NNW 04:37:51 10° NNE
Meteor 2-20 4.4 04:28:05 10° N 04:34:14 86° E 04:40:20 10° S
Cosmos 2322 Rocket 2.3 04:32:25 34° NNW 04:35:01 73° ENE 04:40:41 10° SE
Orbus 7S? 3.5 04:48:21 45° ESE 04:48:21 45° ESE 04:50:18 10° ESE
Cosmos 1937 Rocket 4.1 04:49:25 37° SW 04:49:25 37° SW 04:53:21 10° S
USA 59 Rocket 2.1 04:54:18 14° SSW 04:54:18 14° SSW 04:55:32 10° SSW
Cosmos 2333 4.4 04:49:16 24° NNW 04:52:50 73° ENE 04:58:31 10° SE
BREEZE-M DEB (TANK) 4.3 04:55:04 17° SE 04:55:04 17° SE 04:55:44 10° SE
Meteor 1-26 Rocket 4.1 04:49:15 13° NNW 04:54:10 84° W 04:59:51 10° S
Cosmos 1833 Rocket 4.1 04:55:08 21° NNW 04:55:08 21° NNW 04:58:45 10° NNE
Cosmos 1484 Rocket 3.9 04:51:39 10° NNE 04:54:54 39° E 04:58:06 10° S
Meteor 2-3 Rocket 3.6 04:49:26 10° SSW 04:55:10 78° WNW 05:00:53 10° N
Meteor 2-20 Rocket 4.2 04:50:13 10° N 04:56:02 89° E 05:01:45 10° S
Cosmos 2058 Rocket 2.9 04:54:41 29° NNW 04:56:56 78° W 05:01:20 10° S
SKYMED 2 4.0 04:56:36 10° S 05:00:14 40° WSW 05:00:14 40° WSW
COSMOS 2406 3.1 04:55:23 10° SW 05:01:03 74° WNW 05:06:45 10° NNE
NOSS 3-1 (A) 4.0 04:57:15 30° WNW 05:01:04 67° SW 05:09:42 10° SSE
SL-16 R/B 2.4 05:01:03 36° WNW 05:02:49 48° WSW 05:08:13 10° S
COSMOS 2428 4.0 05:01:17 13° NNW 05:05:55 34° NE 05:11:05 10° ESE
CZ-4 R/B 3.6 05:01:33 10° NNE 05:06:11 68° WNW 05:10:44 10° SSW
Cosmos 2082 Rocket 2.5 05:05:01 34° W 05:06:46 43° NW 05:12:08 10° NNE
SeaSat 1 3.7 05:04:02 10° NNE 05:07:30 24° NNW 05:07:30 24° NNW
Cosmos 1627 Rocket 4.3 05:03:53 10° SSW 05:09:59 75° WNW 05:16:11 10° N
ATLAS 5 CENTAUR R/B 2.9 05:10:38 17° N 05:10:38 17° N 05:12:41 10° NNE
USA 234 3.5 05:05:38 10° E 05:12:05 61° N 05:15:57 26° WNW
Okean 1 2.9 05:11:24 45° NW 05:12:15 63° W 05:15:46 10° S
BREEZE-M DEB (TANK) 3.4 05:12:02 35° SW 05:12:43 44° S 05:14:55 10° E
CZ-2C R/B 4.0 05:11:14 10° N 05:13:16 18° NNW 05:13:16 18° NNW
NOAA 12 4.1 05:11:16 10° N 05:16:28 59° WNW 05:21:37 10° SSW
Helios 1A Rocket 3.3 05:13:30 10° SSW 05:15:55 32° SW 05:15:55 32° SW
DMSP B5D1-3 4.4 05:15:12 10° S 05:20:18 73° WSW 05:25:26 10° NNW
IRIDIUM 114 4.5 05:16:09 10° S 05:21:21 76° E 05:26:35 10° N
Cosmos 2285 Rocket 4.0 05:17:03 13° NNW 05:22:46 76° WSW 05:29:09 10° SSE
BREEZE-M DEB (TANK) 3.1 05:23:26 31° WSW 05:24:31 57° S 05:29:34 10° E
USA 229 4.3 05:20:07 18° NW 05:25:35 60° NE 05:33:27 10° ESE
USA 229 DEB 4.3 05:20:12 18° NW 05:25:40 60° NE 05:33:32 10° ESE
BREEZE-M DEB (TANK) 3.8 05:24:35 19° SW 05:26:21 30° S 05:32:03 10° ESE
Cosmos 2278 4.2 05:24:16 25° WNW 05:26:46 37° WSW 05:31:54 10° S
SL-4 R/B 2.1 05:28:33 30° WSW 05:29:32 40° SSW 05:32:32 10° SE
IRIDIUM 103 4.3 05:25:17 10° S 05:30:30 89° E 05:35:47 10° N
Cosmos 2151 4.0 05:28:30 10° SSE 05:32:25 46° E 05:36:21 10° NNE
Cosmos 1758 Rocket 3.7 05:29:47 10° S 05:34:11 79° E 05:38:36 10° NNE
Cosmos 2221 2.6 05:30:28 10° N 05:34:38 75° E 05:38:46 10° SSE
Cosmos 2026 Rocket 4.1 05:29:21 10° SSW 05:35:13 50° WNW 05:41:11 10° N
Thor Agena Rocket 4.1 05:33:37 10° NNE 05:38:39 60° ESE 05:43:37 10° S
Cosmos 1238 Rocket 3.9 05:38:59 10° N 05:41:33 29° ENE 05:44:07 10° SE
SL-16 R/B 4.3 05:39:09 10° NNW 05:42:45 17° NNE 05:46:19 10° ENE
Cosmos 405 Rocket 2.1 05:40:37 10° SSW 05:43:53 73° WNW 05:47:11 10° N
Cosmos 841 Rocket 4.3 05:40:31 13° WSW 05:44:27 30° NW 05:49:06 10° NNE
Cosmos 1707 2.7 05:42:10 10° N 05:45:18 60° ENE 05:48:23 10° SSE
IRIDIUM 106 4.3 05:43:40 10° SSW 05:48:52 67° W 05:54:05 10° N
Cosmos 158 Rocket 4.0 05:44:19 10° SSW 05:49:38 90° SSE 05:54:54 10° NNE
KORONAS-FOTON 3.6 05:49:30 10° N 05:52:53 77° ENE 05:56:15 10° SSE
Cosmos 2360 Rocket 2.8 05:51:12 15° NW 05:55:23 37° WSW 06:00:30 10° S
S3M 4.0 05:49:10 10° N 05:55:25 87° E 06:01:34 10° S
Cosmos 2333 Rocket 3.2 05:53:03 16° WNW 05:56:26 27° WSW 06:01:09 10° SSW
Cosmos 1553 Rocket 4.2 05:50:46 10° NNW 05:56:53 50° W 06:03:01 10° SSW
Cosmos 1626 Rocket 3.6 05:52:53 10° SSW 05:57:14 55° WNW 06:01:34 10° N
SMAP 3.1 05:54:21 10° NNE 05:59:04 87° ESE 06:03:43 10° SSW
Cosmos 1833 4.3 05:55:58 10° SSW 06:01:38 87° ESE 06:07:23 10° NNE
Cosmos 1092 Rocket 4.4 05:56:29 10° SW 06:02:16 38° WNW 06:08:03 10° N
Cosmos-2242 4.3 06:00:27 15° NW 06:02:31 20° W 06:05:37 10° SW
Cosmos 1842 3.1 06:00:11 10° N 06:03:32 71° ENE 06:06:50 10° SSE
SL-08 R/B 3.8 05:59:21 10° SSE 06:03:54 62° ENE 06:08:33 10° N
Landsat 7 3.9 05:59:38 10° NNE 06:04:20 81° ESE 06:09:00 10° SSW
Cosmos 2237 Rocket 3.3 06:01:07 10° NNW 06:06:24 39° NE 06:11:39 10° ESE
Cosmos 1125 Rocket 3.6 06:02:11 10° NNW 06:07:25 64° WSW 06:12:35 10° S
COSMO-SKYMED 1 4.2 06:05:52 10° WSW 06:08:03 14° W 06:08:59 13° WNW
ATLAS 3B R/B 3.1 06:01:38 11° NW 06:09:26 81° NE 06:17:02 10° SE
Meteor 1-10 Rocket 4.3 06:03:42 10° NNW 06:09:37 75° W 06:15:32 10° S
Cosmos 2219 Rocket 2.6 06:07:36 10° NW 06:12:58 44° WSW 06:18:16 10° S
Meteor 1-19 Rocket 4.4 06:09:17 10° NNW 06:14:59 65° W 06:20:49 10° S
NOSS 0 Rocket 4.2 06:10:46 10° NNW 06:17:00 71° NE 06:23:14 10° SE
Cosmos 2322 Rocket 3.4 06:14:14 11° NW 06:18:30 24° WSW 06:22:55 10° SSW
BREEZE-M DEB (TANK) 4.1 06:05:27 10° W 06:21:27 73° S 06:25:32 10° ESE
IGS 5A 4.2 06:22:56 10° N 06:26:23 28° WNW 06:29:48 10° SW
Cosmos 1812 Rocket 4.1 06:22:41 10° NNW 06:26:39 36° W 06:30:36 10° SSW
Okean 1-7 Rocket 3.6 06:22:29 10° SSW 06:26:59 72° WNW 06:31:28 10° N
Cosmos 1484 Rocket 3.8 06:25:04 10° NNW 06:27:34 19° WNW 06:30:03 10° WSW
YAOGAN 11 4.1 06:23:20 10° SSE 06:27:41 84° WSW 06:32:00 10° NNW
Cosmos 2322 3.7 06:22:34 10° NNW 06:28:14 75° WSW 06:33:52 10° SSE
SJ-12 3.8 06:27:33 10° N 06:31:19 59° WNW 06:35:05 10° SSW
Cosmos 1437 Rocket 3.3 06:29:48 10° NNW 06:32:53 30° W 06:35:58 10° SSW
Cosmos 2266 Rocket 4.1 06:27:10 10° SSW 06:33:30 64° WNW 06:39:46 10° N
Cosmos 1602 Rocket 3.9 06:31:34 10° SW 06:35:47 43° WNW 06:40:03 10° N
ATLAS 2AS CENTAUR R/B 2.9 06:30:12 10° SW 06:37:14 81° SE 06:44:07 10° NE
Cosmos 1818 4.1 06:33:22 10° NW 06:38:43 54° NE 06:44:04 10° ESE
ARIANE 5 R/B 2.6 06:34:46 10° N 06:39:57 66° WNW 06:45:07 10° SSW
